Previsão horária em Sennaya

Hoje, 28 Novembro, Sábado

Tempo Temperatura Precipitação Vento Pressão Humidade
00:00 0°C° 0.1 mm 4 m/s 753 mmHg 92%
01:00 0°C° 0.1 mm 4 m/s 753 mmHg 94%
02:00 0°C° 0 mm 4 m/s 754 mmHg 95%
03:00 0°C° 0.1 mm 4 m/s 754 mmHg 95%
04:00 0°C° 0.1 mm 4 m/s 754 mmHg 94%
05:00 0°C° 0.1 mm 4 m/s 755 mmHg 94%
06:00 0°C° 0.1 mm 4 m/s 755 mmHg 93%
07:00 -1°C° 0.1 mm 4 m/s 756 mmHg 93%
08:00 -1°C° 0.1 mm 4 m/s 757 mmHg 92%
09:00 -1°C° 0 mm 4 m/s 757 mmHg 90%
10:00 -1°C° 0 mm 4 m/s 758 mmHg 88%
11:00 0°C° 0 mm 4 m/s 759 mmHg 86%
12:00 -1°C° 0 mm 4 m/s 759 mmHg 87%
13:00 -1°C° 0 mm 4 m/s 760 mmHg 89%
14:00 -1°C° 0 mm 4 m/s 760 mmHg 90%
15:00 -1°C° 0 mm 4 m/s 761 mmHg 90%
16:00 0°C° 0 mm 3 m/s 761 mmHg 90%
17:00 -1°C° 0 mm 3 m/s 761 mmHg 90%
18:00 -1°C° 0 mm 3 m/s 762 mmHg 91%
19:00 -1°C° 0 mm 3 m/s 762 mmHg 92%
20:00 -1°C° 0 mm 3 m/s 763 mmHg 93%
21:00 -1°C° 0 mm 3 m/s 763 mmHg 93%
22:00 -1°C° 0 mm 3 m/s 763 mmHg 93%
23:00 -1°C° 0 mm 3 m/s 763 mmHg 93%

Amanhã, 29 Novembro, Domingo

Tempo Temperatura Precipitação Vento Pressão Humidade
00:00 -1°C° 0 mm 3 m/s 763 mmHg 92%
01:00 -1°C° 0 mm 3 m/s 764 mmHg 92%
02:00 -1°C° 0 mm 3 m/s 764 mmHg 92%
03:00 -1°C° 0 mm 3 m/s 764 mmHg 92%
04:00 -1°C° 0 mm 3 m/s 763 mmHg 91%
05:00 -1°C° 0 mm 3 m/s 763 mmHg 90%
06:00 -1°C° 0 mm 3 m/s 763 mmHg 89%
07:00 -1°C° 0 mm 3 m/s 763 mmHg 88%
08:00 -2°C° 0 mm 4 m/s 764 mmHg 87%
09:00 -2°C° 0 mm 4 m/s 763 mmHg 86%
10:00 -2°C° 0 mm 4 m/s 763 mmHg 85%
11:00 -3°C° 0 mm 4 m/s 762 mmHg 84%
12:00 -3°C° 0.2 mm 4 m/s 762 mmHg 87%
13:00 -3°C° 0.2 mm 4 m/s 762 mmHg 89%
14:00 -3°C° 0.2 mm 4 m/s 762 mmHg 92%
15:00 -2°C° 0.3 mm 4 m/s 761 mmHg 93%
16:00 -2°C° 0.3 mm 4 m/s 761 mmHg 95%
17:00 -2°C° 0.3 mm 4 m/s 760 mmHg 96%
18:00 -1°C° 0.5 mm 4 m/s 760 mmHg 96%
19:00 0°C° 0.5 mm 4 m/s 760 mmHg 97%
20:00 +1°C° 0.5 mm 4 m/s 760 mmHg 97%
21:00 +1°C° 0.5 mm 4 m/s 760 mmHg 97%
22:00 +2°C° 0.5 mm 3 m/s 760 mmHg 97%
23:00 +2°C° 0.5 mm 3 m/s 759 mmHg 97%

Depois de amanhã, 30 Novembro, Segunda-feira

Tempo Temperatura Precipitação Vento Pressão Humidade
00:00 +2°C° 0.1 mm 3 m/s 759 mmHg 97%
01:00 +2°C° 0.1 mm 3 m/s 760 mmHg 97%
02:00 +2°C° 0.1 mm 3 m/s 760 mmHg 97%
03:00 +2°C° 0 mm 2 m/s 760 mmHg 95%
04:00 +1°C° 0 mm 2 m/s 759 mmHg 94%
05:00 -1°C° 0 mm 2 m/s 759 mmHg 92%
06:00 -1°C° 0 mm 2 m/s 760 mmHg 93%
07:00 -1°C° 0 mm 2 m/s 760 mmHg 93%
08:00 -1°C° 0 mm 2 m/s 760 mmHg 94%
09:00 -1°C° 0 mm 2 m/s 760 mmHg 90%
10:00 +1°C° 0 mm 2 m/s 760 mmHg 87%
11:00 +1°C° 0 mm 2 m/s 760 mmHg 83%
12:00 +1°C° 0 mm 2 m/s 760 mmHg 84%
13:00 +1°C° 0 mm 2 m/s 760 mmHg 85%
14:00 -1°C° 0 mm 2 m/s 760 mmHg 86%
15:00 -1°C° 0 mm 2 m/s 760 mmHg 87%
16:00 -1°C° 0 mm 2 m/s 760 mmHg 87%
17:00 -2°C° 0 mm 2 m/s 760 mmHg 88%
18:00 -1°C° 0 mm 2 m/s 760 mmHg 86%
19:00 -1°C° 0 mm 2 m/s 760 mmHg 85%
20:00 -1°C° 0 mm 2 m/s 760 mmHg 84%
21:00 -1°C° 0 mm 2 m/s 760 mmHg 84%
22:00 -1°C° 0 mm 2 m/s 760 mmHg 85%
23:00 -2°C° 0 mm 2 m/s 760 mmHg 85%

1 Dezembro, Terça-feira

Tempo Temperatura Precipitação Vento Pressão Humidade
00:00 -2°C° 0 mm 3 m/s 760 mmHg 87%
01:00 -2°C° 0 mm 3 m/s 760 mmHg 88%
02:00 -2°C° 0 mm 3 m/s 760 mmHg 90%
03:00 -2°C° 0 mm 3 m/s 760 mmHg 88%
04:00 -2°C° 0 mm 3 m/s 760 mmHg 87%
05:00 -2°C° 0 mm 3 m/s 761 mmHg 85%
06:00 -4°C° 0 mm 4 m/s 761 mmHg 85%
07:00 -4°C° 0 mm 4 m/s 761 mmHg 85%
08:00 -4°C° 0 mm 4 m/s 761 mmHg 85%
09:00 -3°C° 0 mm 4 m/s 761 mmHg 85%
10:00 -3°C° 0 mm 4 m/s 762 mmHg 84%
11:00 -3°C° 0 mm 4 m/s 762 mmHg 83%
12:00 -3°C° 0 mm 4 m/s 762 mmHg 82%
13:00 -3°C° 0 mm 4 m/s 762 mmHg 81%
14:00 -2°C° 0 mm 4 m/s 763 mmHg 80%
15:00 -2°C° 0 mm 3 m/s 763 mmHg 81%
16:00 -2°C° 0 mm 3 m/s 763 mmHg 83%
17:00 -2°C° 0 mm 3 m/s 764 mmHg 85%
18:00 -2°C° 0 mm 3 m/s 764 mmHg 85%
19:00 -2°C° 0 mm 3 m/s 764 mmHg 85%
20:00 -2°C° 0 mm 3 m/s 765 mmHg 86%
21:00 -2°C° 0 mm 3 m/s 765 mmHg 86%
22:00 -4°C° 0 mm 3 m/s 765 mmHg 87%
23:00 -3°C° 0 mm 2 m/s 765 mmHg 87%

2 Dezembro, Quarta-feira

Tempo Temperatura Precipitação Vento Pressão Humidade
00:00 -3°C° 0 mm 2 m/s 766 mmHg 87%
01:00 -3°C° 0 mm 2 m/s 766 mmHg 87%
02:00 -3°C° 0 mm 2 m/s 766 mmHg 86%
03:00 -3°C° 0 mm 2 m/s 766 mmHg 87%
04:00 -3°C° 0 mm 2 m/s 766 mmHg 87%
05:00 -3°C° 0 mm 2 m/s 766 mmHg 87%
06:00 -3°C° 0 mm 2 m/s 766 mmHg 87%
07:00 -3°C° 0 mm 2 m/s 766 mmHg 87%
08:00 -3°C° 0 mm 2 m/s 766 mmHg 87%
09:00 -3°C° 0 mm 2 m/s 766 mmHg 85%
10:00 -3°C° 0 mm 2 m/s 767 mmHg 83%
11:00 -2°C° 0 mm 2 m/s 767 mmHg 81%
12:00 -2°C° 0 mm 2 m/s 766 mmHg 81%
13:00 -2°C° 0 mm 2 m/s 766 mmHg 81%
14:00 -2°C° 0 mm 2 m/s 766 mmHg 81%
15:00 -3°C° 0 mm 2 m/s 766 mmHg 83%
16:00 -3°C° 0 mm 2 m/s 766 mmHg 85%
17:00 -4°C° 0 mm 2 m/s 766 mmHg 87%
18:00 -2°C° 0 mm 1 m/s 766 mmHg 87%
19:00 -2°C° 0 mm 1 m/s 766 mmHg 87%
20:00 -2°C° 0 mm 1 m/s 766 mmHg 87%
21:00 -2°C° 0 mm 1 m/s 766 mmHg 89%
22:00 -2°C° 0 mm 1 m/s 766 mmHg 91%
23:00 -2°C° 0 mm 1 m/s 765 mmHg 93%

3 Dezembro, Quinta-feira

Tempo Temperatura Precipitação Vento Pressão Humidade
00:00 -2°C° 0 mm 1 m/s 765 mmHg 93%
01:00 -1°C° 0 mm 1 m/s 765 mmHg 94%
02:00 -3°C° 0 mm 2 m/s 765 mmHg 94%
03:00 -3°C° 0 mm 2 m/s 765 mmHg 94%
04:00 -4°C° 0 mm 2 m/s 765 mmHg 94%
05:00 -4°C° 0 mm 2 m/s 765 mmHg 94%
06:00 -4°C° 0 mm 2 m/s 765 mmHg 94%
07:00 -4°C° 0 mm 2 m/s 765 mmHg 93%
08:00 -4°C° 0 mm 2 m/s 765 mmHg 92%
09:00 -4°C° 0 mm 2 m/s 765 mmHg 91%
10:00 -3°C° 0 mm 2 m/s 765 mmHg 89%
11:00 -3°C° 0 mm 2 m/s 765 mmHg 87%
12:00 -3°C° 0 mm 2 m/s 765 mmHg 87%
13:00 -3°C° 0 mm 2 m/s 764 mmHg 86%
14:00 -3°C° 0 mm 2 m/s 764 mmHg 86%
15:00 -3°C° 0 mm 2 m/s 764 mmHg 87%
16:00 -3°C° 0 mm 2 m/s 764 mmHg 89%
17:00 -3°C° 0 mm 2 m/s 764 mmHg 90%
18:00 -3°C° 0 mm 2 m/s 764 mmHg 88%
19:00 -3°C° 0 mm 2 m/s 764 mmHg 87%
20:00 -3°C° 0 mm 2 m/s 764 mmHg 85%
21:00 -3°C° 0 mm 2 m/s 765 mmHg 85%
22:00 -2°C° 0 mm 2 m/s 765 mmHg 85%
23:00 -2°C° 0 mm 2 m/s 765 mmHg 85%
Mostrar mais

Necessitamos do seu Consentimento

A Meteoprog e os seus Fornecedores de Serviços podem armazenar e aceder a dados pessoais como cookies, identificadores do dispositivo ou outras tecnologias semelhantes existentes no seu dispositivo e processar estes dados para personalizar conteúdos e anúncios, assim como funcionalidades nas redes sociais e análise de tráfego.

  • Armazenar e/ou aceder a informações no seu dispositivo

    Os cookies, identificadores do dispositivo ou outras informações podem ser armazenados ou acedidos no seu dispositivo, para os fins acima indicados.

  • Anúncios e conteúdos personalizados, medição de anúncios e conteúdos, dados sobre o público-alvo e desenvolvimento de produtos

    Os anúncios e os conteúdos podem ser personalizados com base num perfil. Podem ser adicionados dados adicionais para uma maior personalização dos anúncios e dos conteúdos. A eficácia dos anúncios e dos conteúdos pode ser medida. Podem ser obtidas informações sobre o público que visualizou os anúncios e os conteúdos. Estes dados podem ser usados para desenvolver ou melhorar sistemas, softwares ou a experiência do utilizador.

Ao clicar em "Eu concordo”, permitirá o uso de cookies, identificadores do dispositivo e web beacons mencionados ou outras tecnologias semelhantes. As configurações do navegador do seu dispositivo podem ser alteradas.

Para certos fins, podem ser invocados interesses legítimos ao invés de consentimento. Pode ler mais informação sobre este assunto na nossa Política de Privacidade e Cookies.